EW4729 Weather Reports


Display with metric or nautical units.
time (UTC)temp
F
wind
direction
speed
MPH
gust
MPH
rain 1hr
in
rain 24hr
in
rain mn
in
humidity
%
barometer
mb
20260507024052 66 56 4.0 16.0 0.00 0.00 0.00 82 1013.4
20260507023552 67 5 4.0 16.0 0.00 0.00 0.00 81 1013.3
20260507023054 67 58 4.0 12.0 0.00 0.00 0.00 81 1013.4
20260507022552 67 322 3.0 12.0 0.00 0.00 0.00 82 1013.4
20260507022052 67 55 4.0 15.0 0.00 0.00 0.00 81 1013.2
20260507021558 67 9 4.0 15.0 0.00 0.00 0.00 81 1012.9
20260507021055 67 348 6.0 15.0 0.00 0.00 0.00 81 1012.8
20260507020552 67 350 3.0 9.0 0.00 0.00 0.00 81 1012.7
20260507020101 67 0 3.0 9.0 0.00 0.00 0.00 81 1012.5
20260507015551 68 320 2.0 9.0 0.00 0.00 0.00 82 1012.2
20260507015055 68 301 3.0 9.0 0.00 0.00 0.00 81 1012.1
20260507014559 68 33 3.0 11.0 0.00 0.00 0.00 81 1011.9
20260507014052 68 355 3.0 11.0 0.00 0.00 0.00 81 1011.7
20260507013553 68 38 3.0 11.0 0.00 0.00 0.00 80 1011.7
20260507013100 68 69 3.0 9.0 0.00 0.00 0.00 80 1011.7
20260507012551 69 344 2.0 14.0 0.00 0.00 0.00 80 1011.6
20260507012051 69 0 5.0 14.0 0.00 0.00 0.00 79 1011.4
20260507011557 69 126 4.0 13.0 0.00 0.00 0.00 79 1011.3
20260507011052 69 32 4.0 13.0 0.00 0.00 0.00 79 1011.2
20260507010552 70 53 6.0 13.0 0.00 0.00 0.00 79 1011.3
20260507010052 70 355 3.0 11.0 0.00 0.00 0.00 79 1011.3
20260507005551 70 344 3.0 10.0 0.00 0.00 0.00 79 1011.3
20260507005053 70 315 2.0 11.0 0.00 0.00 0.00 79 1011.3
20260507004554 71 36 4.0 11.0 0.00 0.00 0.00 79 1011.1
20260507004052 71 290 2.0 10.0 0.00 0.00 0.00 79 1011.0
20260507003551 71 298 3.0 11.0 0.00 0.00 0.00 79 1011.0
20260507003100 71 25 4.0 11.0 0.00 0.00 0.00 79 1010.9
20260507002554 71 333 4.0 11.0 0.00 0.00 0.00 79 1011.0
20260507002052 72 63 4.0 13.0 0.00 0.00 0.00 79 1010.9
20260507001552 72 24 4.0 14.0 0.00 0.00 0.00 79 1010.9
20260507001054 72 38 5.0 14.0 0.00 0.00 0.00 78 1010.9
20260507000554 72 271 3.0 14.0 0.00 0.00 0.00 78 1010.8
20260507000053 72 61 4.0 14.0 0.00 0.00 0.00 79 1010.7
20260506235551 72 14 3.0 15.0 0.00 0.00 0.00 79 1010.6
20260506235051 73 40 4.0 15.0 0.00 0.00 0.00 78 1010.4
20260506234606 73 302 6.0 15.0 0.00 0.00 0.00 78 1010.4
20260506234052 73 327 4.0 12.0 0.00 0.00 0.00 78 1010.2
20260506233553 73 73 5.0 12.0 0.00 0.00 0.00 78 1010.3
20260506233058 73 321 4.0 12.0 0.00 0.00 0.00 78 1010.1
20260506232552 74 340 3.0 12.0 0.00 0.00 0.00 78 1010.1
20260506232058 74 12 4.0 18.0 0.00 0.00 0.00 78 1010.0
20260506231558 74 332 4.0 18.0 0.00 0.00 0.00 78 1010.1
20260506231052 74 42 6.0 15.0 0.00 0.00 0.00 78 1010.2
20260506230552 75 5 5.0 15.0 0.00 0.00 0.00 77 1010.0
20260506225552 76 130 5.0 15.0 0.00 0.00 0.00 76 1009.9
20260506225052 77 303 6.0 14.0 0.00 0.00 0.00 76 1009.9
20260506224602 77 14 4.0 16.0 0.00 0.00 0.00 76 1009.8
20260506224050 78 329 8.0 16.0 0.00 0.00 0.00 76 1009.3
20260506223551 79 44 4.0 16.0 0.00 0.00 0.00 77 1009.6
20260506223053 80 144 5.0 16.0 0.00 0.00 0.00 75 1009.6
20260506222553 81 273 6.0 16.0 0.00 0.00 0.00 74 1009.5
20260506222051 83 37 4.0 11.0 0.00 0.00 0.00 78 1009.3
20260506221555 84 5 3.0 11.0 0.00 0.00 0.00 78 1009.3
20260506221051 85 269 1.0 4.0 0.00 0.00 0.00 80 1009.2
20260506220552 85 0 0.0 4.0 0.00 0.00 0.00 80 1009.1
20260506220100 85 0 1.0 6.0 0.00 0.00 0.00 79 1009.2
20260506215551 85 0 2.0 6.0 0.00 0.00 0.00 79 1009.1
20260506215051 85 71 1.0 5.0 0.00 0.00 0.00 79 1009.0
20260506214555 85 87 1.0 5.0 0.00 0.00 0.00 79 1009.2
20260506214051 86 0 1.0 7.0 0.00 0.00 0.00 79 1009.2
20260506213553 86 60 2.0 7.0 0.00 0.00 0.00 79 1009.1
20260506213101 86 24 1.0 4.0 0.00 0.00 0.00 80 1009.0
20260506212554 86 0 2.0 5.0 0.00 0.00 0.00 78 1009.2
20260506212054 86 0 2.0 5.0 0.00 0.00 0.00 78 1009.0
20260506211552 86 76 0.0 3.0 0.00 0.00 0.00 77 1009.1
20260506211054 86 0 0.0 3.0 0.00 0.00 0.00 77 1009.2
20260506210554 86 0 0.0 5.0 0.00 0.00 0.00 76 1009.1
20260506210057 86 0 1.0 5.0 0.00 0.00 0.00 77 1009.1
20260506205553 86 0 0.0 6.0 0.00 0.00 0.00 76 1009.1
20260506205053 86 110 1.0 6.0 0.00 0.00 0.00 77 1009.2
20260506204556 86 0 0.0 5.0 0.00 0.00 0.00 78 1009.2
20260506204053 86 153 0.0 7.0 0.00 0.00 0.00 79 1009.3
20260506203553 86 0 2.0 7.0 0.00 0.00 0.00 78 1009.2
20260506203054 86 162 2.0 8.0 0.00 0.00 0.00 78 1009.3
20260506202553 86 174 1.0 8.0 0.00 0.00 0.00 78 1009.2
20260506202053 86 125 2.0 7.0 0.00 0.00 0.00 77 1009.3
20260506201557 87 106 2.0 7.0 0.00 0.00 0.00 77 1009.3
20260506201054 87 125 3.0 8.0 0.00 0.00 0.00 77 1009.4
20260506200554 87 130 1.0 8.0 0.00 0.00 0.00 76 1009.4
20260506200054 87 175 3.0 8.0 0.00 0.00 0.00 76 1009.4
20260506195553 86 146 3.0 8.0 0.00 0.00 0.00 78 1009.4
20260506195053 86 0 2.0 7.0 0.00 0.00 0.00 78 1009.4
20260506194554 86 0 1.0 9.0 0.00 0.00 0.00 77 1009.4
20260506194123 86 137 3.0 9.0 0.00 0.00 0.00 77 1009.5
20260506193558 86 78 4.0 7.0 0.00 0.00 0.00 77 1009.5
20260506193055 86 0 1.0 8.0 0.00 0.00 0.00 78 1009.5
20260506192554 86 97 1.0 8.0 0.00 0.00 0.00 77 1009.6
20260506192054 86 110 2.0 8.0 0.00 0.00 0.00 78 1009.8
20260506191554 86 0 1.0 7.0 0.00 0.00 0.00 80 1009.8
20260506191054 85 0 1.0 7.0 0.00 0.00 0.00 80 1009.9
20260506190554 84 160 2.0 6.0 0.00 0.00 0.00 80 1010.0
20260506190058 84 0 0.0 7.0 0.00 0.00 0.00 82 1010.0
20260506185553 83 0 0.0 7.0 0.00 0.00 0.00 82 1010.0
20260506185053 83 148 2.0 7.0 0.00 0.00 0.00 82 1010.1
20260506184555 83 0 1.0 6.0 0.00 0.00 0.00 84 1010.1
20260506184054 83 0 1.0 7.0 0.00 0.00 0.00 83 1010.2
20260506183555 83 142 2.0 7.0 0.00 0.00 0.00 84 1010.2
20260506183054 83 0 0.0 5.0 0.00 0.00 0.00 84 1010.1
20260506182554 83 0 0.0 4.0 0.00 0.00 0.00 85 1010.2
20260506182054 82 0 0.0 5.0 0.00 0.00 0.00 87 1010.2
20260506181558 82 85 1.0 5.0 0.00 0.00 0.00 86 1010.3
20260506181052 81 75 1.0 5.0 0.00 0.00 0.00 87 1010.5
20260506180552 81 0 1.0 5.0 0.00 0.00 0.00 89 1010.5
20260506180057 80 84 1.0 4.0 0.00 0.00 0.00 89 1010.6
20260506175555 80 86 0.0 4.0 0.00 0.00 0.00 89 1010.7
20260506175051 80 71 0.0 4.0 0.00 0.00 0.00 89 1010.8
20260506174553 80 0 0.0 0.0 0.00 0.00 0.00 89 1010.8
20260506174051 80 0 0.0 3.0 0.00 0.00 0.00 89 1011.0
20260506173551 80 0 0.0 3.0 0.00 0.00 0.00 89 1011.0
20260506173124 80 96 0.0 3.0 0.00 0.00 0.00 88 1011.2
20260506172551 80 96 0.0 3.0 0.00 0.00 0.00 88 1011.3
20260506172100 80 0 1.0 3.0 0.00 0.00 0.00 88 1011.3
20260506171610 80 0 0.0 3.0 0.00 0.00 0.00 88 1011.4
20260506171055 80 0 0.0 4.0 0.00 0.00 0.00 88 1011.4
20260506170552 80 0 1.0 4.0 0.00 0.00 0.00 87 1011.4
20260506170055 80 93 0.0 4.0 0.00 0.00 0.00 87 1011.5
20260506165552 80 87 1.0 3.0 0.00 0.00 0.00 87 1011.6
20260506165052 80 0 0.0 3.0 0.00 0.00 0.00 87 1011.6
20260506164601 80 0 0.0 4.0 0.00 0.00 0.00 86 1011.5
20260506164051 80 0 0.0 4.0 0.00 0.00 0.00 86 1011.6
20260506163552 80 0 1.0 4.0 0.00 0.00 0.00 86 1011.5
20260506163106 80 0 0.0 3.0 0.00 0.00 0.00 86 1011.5
20260506162551 80 0 0.0 3.0 0.00 0.00 0.00 86 1011.5
20260506162051 80 0 0.0 6.0 0.00 0.00 0.00 86 1011.4
20260506161629 80 0 1.0 6.0 0.00 0.00 0.00 86 1011.4
20260506161055 80 96 1.0 6.0 0.00 0.00 0.00 86 1011.2
20260506160551 80 0 1.0 7.0 0.00 0.00 0.00 86 1011.0
20260506160108 80 143 1.0 8.0 0.00 0.00 0.00 87 1010.9
20260506155551 80 114 1.0 8.0 0.00 0.00 0.00 87 1010.7
20260506155053 80 0 1.0 5.0 0.00 0.00 0.00 87 1010.6
20260506154555 80 135 0.0 6.0 0.00 0.00 0.00 87 1010.7
20260506154053 80 0 1.0 6.0 0.00 0.00 0.00 86 1010.6
20260506153554 80 0 1.0 6.0 0.00 0.00 0.00 86 1010.5
20260506153058 80 99 1.0 5.0 0.00 0.00 0.00 87 1010.5
20260506152551 80 120 0.0 5.0 0.00 0.00 0.00 87 1010.5
20260506152053 79 0 0.0 5.0 0.00 0.00 0.00 87 1010.5
20260506151555 79 111 0.0 3.0 0.00 0.00 0.00 88 1010.4
20260506151052 79 0 0.0 2.0 0.00 0.00 0.00 88 1010.5
20260506150553 79 153 0.0 6.0 0.00 0.00 0.00 88 1010.6
20260506150059 79 0 0.0 6.0 0.00 0.00 0.00 88 1010.6
20260506145556 79 164 0.0 5.0 0.00 0.00 0.00 88 1010.4
20260506145052 79 169 1.0 5.0 0.00 0.00 0.00 88 1010.1
20260506144554 79 165 2.0 8.0 0.00 0.00 0.00 89 1010.1
20260506144051 79 171 2.0 9.0 0.00 0.00 0.00 90 1010.1
20260506143552 78 191 3.0 9.0 0.00 0.00 0.00 90 1010.0
20260506143055 78 122 2.0 6.0 0.00 0.00 0.00 90 1010.0
20260506142553 78 146 2.0 7.0 0.00 0.00 0.00 91 1009.9
20260506142054 78 188 1.0 7.0 0.00 0.00 0.00 91 1009.9
20260506141557 78 178 1.0 8.0 0.00 0.00 0.00 91 1009.7
20260506141052 78 128 2.0 8.0 0.00 0.00 0.00 91 1009.5
20260506140552 77 142 2.0 8.0 0.00 0.00 0.00 91 1009.5
20260506140058 77 149 3.0 8.0 0.00 0.00 0.00 92 1009.5
20260506135551 77 159 2.0 8.0 0.00 0.00 0.00 92 1009.4
20260506135053 77 160 3.0 8.0 0.00 0.00 0.00 92 1009.4
20260506134555 77 173 3.0 8.0 0.00 0.00 0.00 92 1009.6
20260506134053 77 150 3.0 9.0 0.00 0.00 0.00 92 1009.5
20260506133554 77 172 2.0 9.0 0.00 0.00 0.00 92 1009.7
20260506133052 77 150 3.0 9.0 0.00 0.00 0.00 92 1009.8
20260506132553 77 152 1.0 6.0 0.00 0.00 0.00 93 1009.7
20260506132053 77 136 2.0 6.0 0.00 0.00 0.00 92 1009.8
20260506131602 76 167 2.0 6.0 0.00 0.00 0.00 93 1009.8
20260506131053 76 173 2.0 6.0 0.00 0.00 0.00 93 1009.7
20260506130553 76 152 2.0 6.0 0.00 0.00 0.00 93 1009.7
20260506130131 76 150 1.0 5.0 0.00 0.00 0.00 93 1009.5
20260506125553 76 162 2.0 7.0 0.00 0.00 0.00 93 1009.5
20260506125053 76 150 1.0 7.0 0.00 0.00 0.00 93 1009.5
20260506124559 76 149 2.0 7.0 0.00 0.00 0.00 93 1009.6
20260506124053 76 178 1.0 5.0 0.00 0.00 0.00 93 1009.7
20260506123553 76 172 1.0 5.0 0.00 0.00 0.00 93 1009.5
20260506123057 76 173 0.0 5.0 0.00 0.00 0.00 93 1009.5
20260506122554 76 173 1.0 7.0 0.00 0.00 0.00 93 1009.4
20260506122053 76 206 1.0 7.0 0.00 0.00 0.00 93 1009.5
20260506121559 76 192 2.0 7.0 0.00 0.00 0.00 93 1009.5
20260506121052 76 148 2.0 7.0 0.00 0.00 0.00 93 1009.5
20260506120552 76 174 3.0 9.0 0.00 0.00 0.00 93 1009.4
20260506120107 76 192 3.0 10.0 0.00 0.00 0.00 93 1009.4
20260506115553 76 152 5.0 10.0 0.00 0.00 0.00 93 1009.3
20260506115052 76 173 2.0 7.0 0.00 0.00 0.00 93 1009.3
20260506114553 76 0 2.0 8.0 0.00 0.00 0.00 93 1009.3
20260506114053 76 150 2.0 9.0 0.00 0.00 0.00 93 1009.2
20260506113553 76 169 2.0 9.0 0.00 0.00 0.00 93 1009.1
20260506113058 76 157 4.0 9.0 0.00 0.00 0.00 93 1009.0
20260506112553 76 182 3.0 9.0 0.00 0.00 0.00 93 1009.1
20260506112052 76 178 3.0 9.0 0.00 0.00 0.00 93 1009.1
20260506111555 76 153 4.0 10.0 0.00 0.00 0.00 93 1009.1
20260506111052 76 188 4.0 10.0 0.00 0.00 0.00 93 1009.1
20260506110553 76 197 5.0 10.0 0.00 0.00 0.00 93 1009.0
20260506110100 76 171 4.0 10.0 0.00 0.00 0.00 93 1008.8
20260506105553 76 196 4.0 9.0 0.00 0.00 0.00 93 1008.7
20260506105052 76 183 4.0 9.0 0.00 0.00 0.00 93 1008.7
20260506104557 76 159 4.0 12.0 0.00 0.00 0.00 93 1008.9
20260506104051 75 185 4.0 13.0 0.00 0.00 0.00 93 1008.6
20260506103551 75 179 4.0 13.0 0.00 0.00 0.00 93 1008.5
20260506103059 75 161 4.0 11.0 0.00 0.00 0.00 93 1008.5
20260506102551 76 181 5.0 12.0 0.00 0.00 0.00 93 1008.5
20260506102053 76 181 6.0 12.0 0.00 0.00 0.00 93 1008.5
20260506101600 76 163 4.0 10.0 0.00 0.00 0.00 93 1008.3
20260506101053 76 162 3.0 10.0 0.00 0.00 0.00 93 1008.4
20260506100551 75 175 4.0 10.0 0.00 0.00 0.00 93 1008.3
20260506100114 75 194 4.0 9.0 0.00 0.00 0.00 93 1008.3
20260506095556 75 193 3.0 9.0 0.00 0.00 0.00 93 1008.3
20260506095053 75 193 3.0 9.0 0.00 0.00 0.00 93 1008.5
20260506094553 75 175 3.0 9.0 0.00 0.00 0.00 93 1008.5
20260506094051 75 173 2.0 7.0 0.00 0.00 0.00 93 1008.3
20260506093551 75 177 3.0 8.0 0.00 0.00 0.00 93 1008.4
20260506093053 75 179 4.0 9.0 0.00 0.00 0.00 93 1008.3
20260506092554 75 173 3.0 10.0 0.00 0.00 0.00 93 1008.3
20260506092055 75 179 5.0 12.0 0.00 0.00 0.00 93 1008.3
20260506091555 75 169 4.0 14.0 0.00 0.00 0.00 93 1008.2
20260506091053 75 163 5.0 14.0 0.00 0.00 0.00 93 1008.3
20260506090553 75 190 4.0 11.0 0.00 0.00 0.00 93 1008.2
20260506090054 75 169 5.0 11.0 0.00 0.00 0.00 93 1008.2
20260506085553 75 212 5.0 10.0 0.00 0.00 0.00 93 1008.1
20260506085053 75 184 5.0 10.0 0.00 0.00 0.00 92 1008.1
20260506084620 75 160 5.0 9.0 0.00 0.00 0.00 92 1008.3
20260506084053 75 175 5.0 9.0 0.00 0.00 0.00 92 1008.4
20260506083553 75 173 4.0 10.0 0.00 0.00 0.00 92 1008.2
20260506083055 75 154 4.0 10.0 0.00 0.00 0.00 92 1008.2
20260506082553 76 128 4.0 8.0 0.00 0.00 0.00 92 1008.3
20260506082052 76 157 2.0 7.0 0.00 0.00 0.00 92 1008.5
20260506081556 76 184 3.0 9.0 0.00 0.00 0.00 92 1008.4
20260506081053 76 192 3.0 9.0 0.00 0.00 0.00 92 1008.4
20260506080555 76 159 3.0 12.0 0.00 0.00 0.00 92 1008.3
20260506073057 76 180 3.0 7.0 0.00 0.00 0.00 92 1009.0
20260506072553 76 161 2.0 7.0 0.00 0.00 0.00 92 1009.0
20260506072052 76 152 1.0 7.0 0.00 0.00 0.00 92 1009.1
20260506071559 76 182 2.0 8.0 0.00 0.00 0.00 92 1009.1
20260506071052 76 184 3.0 8.0 0.00 0.00 0.00 91 1009.0
20260506070553 76 175 3.0 9.0 0.00 0.00 0.00 92 1009.0
20260506062052 76 179 4.0 9.0 0.00 0.00 0.00 91 1009.3
20260506061553 76 170 4.0 11.0 0.00 0.00 0.00 91 1009.4
20260506061053 76 196 5.0 12.0 0.00 0.00 0.00 91 1009.4
20260506060552 76 180 6.0 12.0 0.00 0.00 0.00 91 1009.3
20260506051054 77 175 4.0 10.0 0.00 0.00 0.00 89 1009.6
20260506050552 77 179 5.0 11.0 0.00 0.00 0.00 89 1009.6
20260506045052 77 196 7.0 12.0 0.00 0.00 0.00 89 1009.6
20260506044702 77 202 5.0 11.0 0.00 0.00 0.00 89 1009.6
20260506044058 77 166 5.0 11.0 0.00 0.00 0.00 89 1009.6
20260506043553 77 194 4.0 10.0 0.00 0.00 0.00 89 1009.4
20260506043101 77 180 5.0 11.0 0.00 0.00 0.00 89 1009.4
20260506042552 77 180 5.0 11.0 0.00 0.00 0.00 88 1009.3
20260506042051 77 182 3.0 10.0 0.00 0.00 0.00 88 1009.3
20260506041603 77 164 4.0 10.0 0.00 0.00 0.00 88 1009.2
20260506041054 77 182 5.0 11.0 0.00 0.00 0.00 88 1009.3
20260506040557 77 187 4.0 11.0 0.00 0.00 0.00 88 1009.3
20260506040100 78 175 4.0 10.0 0.00 0.00 0.00 88 1009.3
20260506035555 78 176 4.0 8.0 0.00 0.00 0.00 88 1009.4
20260506035055 78 178 3.0 8.0 0.00 0.00 0.00 88 1009.5
20260506034629 78 182 2.0 9.0 0.00 0.00 0.00 88 1009.4
20260506034054 78 177 3.0 9.0 0.00 0.00 0.00 88 1009.3
20260506033555 78 155 2.0 8.0 0.00 0.00 0.00 88 1009.2
20260506033104 78 193 3.0 9.0 0.00 0.00 0.00 88 1009.2
20260506032554 78 198 4.0 9.0 0.00 0.00 0.00 88 1009.1
20260506032054 78 177 2.0 8.0 0.00 0.00 0.00 88 1009.0
20260506031606 78 183 2.0 8.0 0.00 0.00 0.00 87 1009.0
20260506031054 78 0 3.0 12.0 0.00 0.00 0.00 87 1008.9
20260506030553 78 175 2.0 12.0 0.00 0.00 0.00 87 1008.7
20260506030057 78 169 4.0 11.0 0.00 0.00 0.00 87 1008.7
20260506025553 78 178 2.0 9.0 0.00 0.00 0.00 87 1008.7
20260506025054 78 190 2.0 12.0 0.00 0.00 0.00 87 1008.7
20260506024558 78 178 4.0 12.0 0.00 0.00 0.00 87 1008.6